"read_dt","SO2 (ppb)","flags","PMT voltage (V)","lamp voltage (V)","lamp intensity (Hz)","internal temp (C)","react chamber temp (C)","sample flow (l/min)","pres (mmHg)","SO2 bkg (ppb)","SO2 coefficient"
2015-07-03 00:00:00,1689E-3,5C000000,-0724,0823,12208,028.3,045.5,0.474,728.2,01.19,0.508
2015-07-03 00:01:00,1679E-3,5C000000,-0724,0822,12421,028.3,045.5,0.473,728.1,01.19,0.508
2015-07-03 00:02:00,1671E-3,5C000000,-0724,0822,12231,028.3,045.4,0.473,728.2,01.19,0.508
2015-07-03 00:03:00,1580E-3,5C000000,-0724,0822,12282,028.3,045.4,0.473,728.1,01.19,0.508
2015-07-03 00:04:00,1691E-3,5C000000,-0724,0822,12232,028.4,045.5,0.474,728.2,01.19,0.508
2015-07-03 00:05:00,1652E-3,5C000000,-0724,0822,12309,028.4,045.5,0.474,728.1,01.19,0.508
2015-07-03 00:06:00,1515E-3,5C000000,-0724,0823,12188,028.3,045.5,0.473,728.2,01.19,0.508
2015-07-03 00:07:00,1693E-3,5C000000,-0724,0823,12173,028.3,045.5,0.473,728.3,01.19,0.508
2015-07-03 00:08:00,1685E-3,5C000000,-0724,0822,12233,028.3,045.5,0.473,728.3,01.19,0.508
2015-07-03 00:09:00,1623E-3,5C000000,-0724,0823,12411,028.3,045.5,0.474,728.3,01.19,0.508
2015-07-03 00:10:00,1769E-3,5C000000,-0724,0822,12203,028.4,045.5,0.474,728.4,01.19,0.508
2015-07-03 00:11:00,1708E-3,5C000000,-0724,0823,12285,028.3,045.5,0.473,728.4,01.19,0.508
2015-07-03 00:12:00,1735E-3,5C000000,-0724,0822,12463,028.4,045.5,0.473,728.5,01.19,0.508
2015-07-03 00:13:00,1640E-3,5C000000,-0724,0822,12264,028.4,045.5,0.473,728.4,01.19,0.508
2015-07-03 00:14:00,1590E-3,5C000000,-0724,0823,12149,028.4,045.5,0.473,728.4,01.19,0.508
2015-07-03 00:15:00,1782E-3,5C000000,-0724,0822,12238,028.3,045.5,0.474,728.3,01.19,0.508
2015-07-03 00:16:00,1640E-3,5C000000,-0724,0823,12276,028.3,045.5,0.474,728.5,01.19,0.508
2015-07-03 00:17:00,1687E-3,5C000000,-0724,0823,12232,028.4,045.5,0.473,728.5,01.19,0.508
2015-07-03 00:18:00,1671E-3,5C000000,-0724,0822,12358,028.4,045.5,0.473,728.5,01.19,0.508
2015-07-03 00:19:00,1622E-3,5C000000,-0724,0822,12093,028.4,045.5,0.474,728.5,01.19,0.508
2015-07-03 00:20:00,1741E-3,5C000000,-0724,0823,12426,028.4,045.5,0.474,728.4,01.19,0.508
2015-07-03 00:21:00,1716E-3,5C000000,-0724,0823,12261,028.4,045.5,0.474,728.4,01.19,0.508
2015-07-03 00:22:00,1536E-3,5C000000,-0724,0823,12200,028.4,045.5,0.473,728.5,01.19,0.508
2015-07-03 00:23:00,1767E-3,5C000000,-0724,0822,12430,028.3,045.5,0.473,728.5,01.19,0.508
2015-07-03 00:24:00,1662E-3,5C000000,-0724,0823,12306,028.4,045.5,0.473,728.3,01.19,0.508
2015-07-03 00:25:00,1836E-3,5C000000,-0724,0823,12247,028.3,045.4,0.473,728.5,01.19,0.508
2015-07-03 00:26:00,1648E-3,5C000000,-0724,0822,12321,028.4,045.5,0.474,728.4,01.19,0.508
2015-07-03 00:27:00,1638E-3,5C000000,-0724,0822,12178,028.4,045.5,0.474,728.5,01.19,0.508
2015-07-03 00:28:00,1612E-3,5C000000,-0724,0823,12321,028.4,045.5,0.473,728.5,01.19,0.508
2015-07-03 00:29:00,1613E-3,5C000000,-0724,0823,12319,028.4,045.4,0.473,728.5,01.19,0.508
2015-07-03 00:30:00,1626E-3,5C000000,-0724,0821,12454,028.4,045.4,0.473,728.3,01.19,0.508
2015-07-03 00:31:00,1571E-3,5C000000,-0724,0823,12256,028.4,045.5,0.474,728.4,01.19,0.508
2015-07-03 00:32:00,1795E-3,5C000000,-0724,0822,12416,028.4,045.5,0.474,728.4,01.19,0.508
2015-07-03 00:33:00,1671E-3,5C000000,-0724,0822,12200,028.4,045.5,0.474,728.5,01.19,0.508
2015-07-03 00:34:00,1713E-3,5C000000,-0724,0822,12265,028.4,045.5,0.473,728.4,01.19,0.508
2015-07-03 00:35:00,1774E-3,5C000000,-0724,0823,12329,028.4,045.5,0.473,728.4,01.19,0.508
2015-07-03 00:36:00,1664E-3,5C000000,-0724,0822,12072,028.4,045.5,0.473,728.4,01.19,0.508
2015-07-03 00:37:00,1774E-3,5C000000,-0724,0822,12215,028.4,045.5,0.474,728.4,01.19,0.508
2015-07-03 00:38:00,1674E-3,5C000000,-0724,0823,12257,028.4,045.5,0.474,728.3,01.19,0.508
2015-07-03 00:39:00,1681E-3,5C000000,-0724,0822,12209,028.4,045.5,0.473,728.2,01.19,0.508
2015-07-03 00:40:00,1620E-3,5C000000,-0724,0822,12254,028.4,045.5,0.473,728.3,01.19,0.508
2015-07-03 00:41:00,1736E-3,5C000000,-0724,0822,12323,028.4,045.5,0.473,728.3,01.19,0.508
2015-07-03 00:42:00,1749E-3,5C000000,-0724,0823,12128,028.4,045.5,0.473,728.4,01.19,0.508
2015-07-03 00:43:00,1723E-3,5C000000,-0724,0824,12282,028.4,045.5,0.474,728.3,01.19,0.508
2015-07-03 00:44:00,1661E-3,5C000000,-0724,0823,12291,028.4,045.5,0.474,728.4,01.19,0.508
2015-07-03 00:45:00,1776E-3,5C000000,-0724,0823,12296,028.4,045.5,0.473,728.4,01.19,0.508
2015-07-03 00:46:00,1628E-3,5C000000,-0724,0823,12181,028.4,045.5,0.473,728.6,01.19,0.508
2015-07-03 00:47:00,1639E-3,5C000000,-0724,0824,12253,028.4,045.5,0.473,728.4,01.19,0.508
2015-07-03 00:48:00,1631E-3,5C000000,-0724,0822,12317,028.5,045.5,0.473,728.5,01.19,0.508
2015-07-03 00:49:00,1693E-3,5C000000,-0724,0823,12316,028.5,045.5,0.474,728.3,01.19,0.508
2015-07-03 00:50:00,1620E-3,5C000000,-0724,0822,12337,028.5,045.5,0.474,728.4,01.19,0.508
2015-07-03 00:51:00,1707E-3,5C000000,-0724,0823,12275,028.4,045.5,0.473,728.6,01.19,0.508
2015-07-03 00:52:00,1731E-3,5C000000,-0724,0823,12219,028.5,045.5,0.473,728.4,01.19,0.508
2015-07-03 00:53:00,1545E-3,5C000000,-0724,0823,12279,028.5,045.5,0.473,728.5,01.19,0.508
2015-07-03 00:54:00,1723E-3,5C000000,-0724,0823,12226,028.5,045.5,0.473,728.5,01.19,0.508
2015-07-03 00:55:00,1678E-3,5C000000,-0724,0824,12281,028.5,045.5,0.473,728.4,01.19,0.508
2015-07-03 00:56:00,1617E-3,5C000000,-0724,0823,12376,028.5,045.4,0.474,728.6,01.19,0.508
2015-07-03 00:57:00,1591E-3,5C000000,-0724,0822,12308,028.5,045.5,0.474,728.6,01.19,0.508
2015-07-03 00:58:00,1605E-3,5C000000,-0724,0823,12308,028.5,045.5,0.473,728.7,01.19,0.508
2015-07-03 00:59:00,1593E-3,5C000000,-0724,0822,12267,028.5,045.5,0.473,728.6,01.19,0.508
2015-07-03 01:00:00,1612E-3,5C000000,-0724,0823,12245,028.5,045.5,0.473,728.8,01.19,0.508
2015-07-03 01:01:00,1725E-3,5C000000,-0724,0823,12415,028.5,045.5,0.473,728.9,01.19,0.508
2015-07-03 01:02:00,1729E-3,5C000000,-0724,0823,12351,028.5,045.5,0.473,728.7,01.19,0.508
2015-07-03 01:03:00,1765E-3,5C000000,-0724,0822,12286,028.5,045.5,0.474,728.8,01.19,0.508
2015-07-03 01:04:00,1646E-3,5C000000,-0724,0823,12352,028.5,045.5,0.474,728.7,01.19,0.508
2015-07-03 01:05:00,1708E-3,5C000000,-0724,0823,12107,028.5,045.5,0.473,728.7,01.19,0.508
2015-07-03 01:06:00,1619E-3,5C000000,-0724,0824,12197,028.5,045.5,0.473,728.8,01.19,0.508
2015-07-03 01:07:00,1726E-3,5C000000,-0724,0824,12239,028.5,045.5,0.473,728.7,01.19,0.508
2015-07-03 01:08:00,1636E-3,5C000000,-0724,0823,12226,028.5,045.5,0.473,728.8,01.19,0.508
2015-07-03 01:09:00,1652E-3,5C000000,-0724,0823,12191,028.5,045.5,0.473,728.6,01.19,0.508
2015-07-03 01:10:00,1701E-3,5C000000,-0724,0823,12269,028.5,045.5,0.474,728.7,01.19,0.508
2015-07-03 01:11:00,1588E-3,5C000000,-0724,0823,12295,028.5,045.5,0.474,728.7,01.19,0.508
2015-07-03 01:12:00,1622E-3,5C000000,-0724,0823,12266,028.6,045.5,0.474,728.8,01.19,0.508
2015-07-03 01:13:00,1727E-3,5C000000,-0724,0823,12202,028.5,045.5,0.473,728.9,01.19,0.508
2015-07-03 01:14:00,1799E-3,5C000000,-0724,0823,12142,028.5,045.4,0.473,729.0,01.19,0.508
2015-07-03 01:15:00,1653E-3,5C000000,-0724,0823,12254,028.5,045.5,0.473,728.9,01.19,0.508
2015-07-03 01:16:00,1667E-3,5C000000,-0724,0823,12142,028.5,045.5,0.473,728.7,01.19,0.508
2015-07-03 01:17:00,1739E-3,5C000000,-0724,0823,12202,028.6,045.5,0.473,728.9,01.19,0.508
2015-07-03 01:18:00,1509E-3,5C000000,-0724,0824,12331,028.5,045.5,0.474,728.9,01.19,0.508
2015-07-03 01:19:00,1723E-3,5C000000,-0724,0823,12295,028.5,045.5,0.474,728.8,01.19,0.508
2015-07-03 01:20:00,1624E-3,5C000000,-0724,0823,12105,028.6,045.5,0.473,728.8,01.19,0.508
2015-07-03 01:21:00,1742E-3,5C000000,-0724,0823,12363,028.5,045.5,0.473,728.9,01.19,0.508
2015-07-03 01:22:00,1675E-3,5C000000,-0724,0822,12294,028.6,045.5,0.473,728.9,01.19,0.508
2015-07-03 01:23:00,1608E-3,5C000000,-0724,0823,12228,028.5,045.5,0.473,728.9,01.19,0.508
2015-07-03 01:24:00,1544E-3,5C000000,-0724,0823,12345,028.5,045.5,0.473,728.9,01.19,0.508
2015-07-03 01:25:00,1580E-3,5C000000,-0724,0823,12182,028.6,045.5,0.473,728.9,01.19,0.508
2015-07-03 01:26:00,1663E-3,5C000000,-0724,0822,12240,028.6,045.5,0.473,728.9,01.19,0.508
2015-07-03 01:27:00,1644E-3,5C000000,-0724,0824,12252,028.6,045.5,0.474,728.9,01.19,0.508
2015-07-03 01:28:00,1717E-3,5C000000,-0724,0824,12242,028.6,045.5,0.474,728.8,01.19,0.508
2015-07-03 01:29:00,1607E-3,5C000000,-0724,0823,12177,028.6,045.5,0.473,728.8,01.19,0.508
2015-07-03 01:30:00,1641E-3,5C000000,-0724,0823,12307,028.6,045.5,0.473,728.8,01.19,0.508
2015-07-03 01:31:00,1716E-3,5C000000,-0724,0822,12139,028.6,045.5,0.473,728.8,01.19,0.508
2015-07-03 01:32:00,1703E-3,5C000000,-0724,0823,12210,028.6,045.5,0.473,728.9,01.19,0.508
2015-07-03 01:33:00,1720E-3,5C000000,-0724,0823,12194,028.6,045.5,0.473,728.6,01.19,0.508
2015-07-03 01:34:00,1716E-3,5C000000,-0724,0822,12257,028.6,045.5,0.473,728.7,01.19,0.508
2015-07-03 01:35:00,1660E-3,5C000000,-0724,0823,12110,028.6,045.5,0.473,728.9,01.19,0.508
2015-07-03 01:36:00,1729E-3,5C000000,-0724,0823,12331,028.6,045.5,0.473,728.7,01.19,0.508
2015-07-03 01:37:00,1646E-3,5C000000,-0724,0822,12116,028.6,045.5,0.473,728.8,01.19,0.508
2015-07-03 01:38:00,1625E-3,5C000000,-0724,0823,12251,028.6,045.5,0.473,728.8,01.19,0.508
2015-07-03 01:39:00,1628E-3,5C000000,-0724,0822,12266,028.6,045.5,0.473,728.8,01.19,0.508
2015-07-03 01:40:00,1596E-3,5C000000,-0724,0823,12187,028.6,045.5,0.474,728.8,01.19,0.508
2015-07-03 01:41:00,1656E-3,5C000000,-0724,0822,12174,028.6,045.5,0.473,728.9,01.19,0.508
2015-07-03 01:42:00,1542E-3,5C000000,-0724,0822,12070,028.6,045.5,0.473,728.8,01.19,0.508
2015-07-03 01:43:00,1740E-3,5C000000,-0724,0822,12181,028.6,045.5,0.473,728.9,01.19,0.508
2015-07-03 01:44:00,1594E-3,5C000000,-0724,0822,12295,028.6,045.5,0.473,729.0,01.19,0.508
2015-07-03 01:45:00,1619E-3,5C000000,-0724,0823,12350,028.6,045.5,0.473,728.9,01.19,0.508
2015-07-03 01:46:00,1619E-3,5C000000,-0724,0822,12311,028.6,045.5,0.473,729.0,01.19,0.508
2015-07-03 01:47:00,1583E-3,5C000000,-0724,0823,12212,028.6,045.5,0.473,729.0,01.19,0.508
2015-07-03 01:48:00,1808E-3,5C000000,-0724,0823,12347,028.6,045.5,0.473,729.0,01.19,0.508
2015-07-03 01:49:00,1716E-3,5C000000,-0724,0823,12233,028.6,045.5,0.473,729.0,01.19,0.508
2015-07-03 01:50:00,1657E-3,5C000000,-0724,0822,12228,028.6,045.5,0.473,729.0,01.19,0.508
2015-07-03 01:51:00,1615E-3,5C000000,-0724,0822,12113,028.5,045.5,0.473,729.0,01.19,0.508
2015-07-03 01:52:00,1671E-3,5C000000,-0724,0822,12229,028.5,045.5,0.473,728.9,01.19,0.508
2015-07-03 01:53:00,1607E-3,5C000000,-0724,0822,12283,028.5,045.5,0.473,728.9,01.19,0.508
2015-07-03 01:54:00,1671E-3,5C000000,-0724,0822,12263,028.4,045.5,0.473,729.0,01.19,0.508
2015-07-03 01:55:00,1600E-3,5C000000,-0724,0823,12171,028.4,045.4,0.473,728.9,01.19,0.508
2015-07-03 01:56:00,1667E-3,5C000000,-0724,0822,12305,028.3,045.4,0.473,729.0,01.19,0.508
2015-07-03 01:57:00,1687E-3,5C000000,-0724,0822,12298,028.3,045.5,0.474,729.0,01.19,0.508
2015-07-03 01:58:00,1633E-3,5C000000,-0724,0823,12277,028.2,045.5,0.474,729.0,01.19,0.508
2015-07-03 01:59:00,1686E-3,5C000000,-0724,0823,12291,028.2,045.5,0.474,729.0,01.19,0.508
2015-07-03 02:00:00,1744E-3,5C000000,-0724,0823,12199,028.1,045.5,0.474,729.0,01.19,0.508
2015-07-03 02:01:00,1609E-3,5C000000,-0724,0822,12133,028.1,045.4,0.474,728.9,01.19,0.508
2015-07-03 02:02:00,1683E-3,5C000000,-0724,0823,12269,028.0,045.5,0.474,729.0,01.19,0.508
2015-07-03 02:03:00,1713E-3,5C000000,-0724,0822,12257,028.0,045.4,0.474,729.0,01.19,0.508
2015-07-03 02:04:00,1634E-3,5C000000,-0724,0822,12271,027.9,045.5,0.474,729.0,01.19,0.508
2015-07-03 02:05:00,1885E-3,5C000000,-0724,0823,12249,027.9,045.5,0.474,729.0,01.19,0.508
2015-07-03 02:06:00,1676E-3,5C000000,-0724,0822,12259,027.8,045.5,0.474,729.0,01.19,0.508
2015-07-03 02:07:00,1772E-3,5C000000,-0724,0822,12222,027.8,045.5,0.474,729.0,01.19,0.508
2015-07-03 02:08:00,1520E-3,5C000000,-0724,0823,12251,027.7,045.5,0.474,728.8,01.19,0.508
2015-07-03 02:09:00,1701E-3,5C000000,-0724,0822,12219,027.7,045.4,0.474,729.0,01.19,0.508
2015-07-03 02:10:00,1705E-3,5C000000,-0724,0823,12311,027.6,045.5,0.474,729.0,01.19,0.508
2015-07-03 02:11:00,1620E-3,5C000000,-0724,0822,12155,027.6,045.5,0.474,728.7,01.19,0.508
2015-07-03 02:12:00,1682E-3,5C000000,-0724,0822,12214,027.5,045.5,0.475,729.0,01.19,0.508
2015-07-03 02:13:00,1745E-3,5C000000,-0724,0823,12349,027.5,045.4,0.475,729.1,01.19,0.508
2015-07-03 02:14:00,1704E-3,5C000000,-0724,0822,12201,027.5,045.4,0.475,729.1,01.19,0.508
2015-07-03 02:15:00,1745E-3,5C000000,-0724,0822,12431,027.4,045.4,0.475,729.1,01.19,0.508
2015-07-03 02:16:00,1739E-3,5C000000,-0724,0822,12276,027.4,045.5,0.475,729.2,01.19,0.508
2015-07-03 02:17:00,1670E-3,5C000000,-0724,0822,12255,027.3,045.4,0.475,729.2,01.19,0.508
2015-07-03 02:18:00,1685E-3,5C000000,-0724,0822,12245,027.3,045.4,0.475,729.4,01.19,0.508
2015-07-03 02:19:00,1638E-3,5C000000,-0724,0822,12254,027.3,045.4,0.475,729.4,01.19,0.508
2015-07-03 02:20:00,1553E-3,5C000000,-0724,0822,12303,027.3,045.4,0.475,729.3,01.19,0.508
2015-07-03 02:21:00,1583E-3,5C000000,-0724,0822,12260,027.2,045.4,0.475,729.3,01.19,0.508
2015-07-03 02:22:00,1635E-3,5C000000,-0724,0823,12340,027.2,045.5,0.476,729.3,01.19,0.508
2015-07-03 02:23:00,1490E-3,5C000000,-0724,0822,12096,027.2,045.4,0.476,729.3,01.19,0.508
2015-07-03 02:24:00,1624E-3,5C000000,-0724,0822,12354,027.1,045.4,0.476,729.3,01.19,0.508
2015-07-03 02:25:00,1680E-3,5C000000,-0724,0822,12314,027.1,045.4,0.476,729.3,01.19,0.508
2015-07-03 02:26:00,1718E-3,5C000000,-0724,0822,12253,027.1,045.4,0.476,729.5,01.19,0.508
2015-07-03 02:27:00,1678E-3,5C000000,-0724,0822,12283,027.0,045.4,0.476,729.5,01.19,0.508
2015-07-03 02:28:00,1833E-3,5C000000,-0724,0823,12275,027.0,045.4,0.476,729.5,01.19,0.508
2015-07-03 02:29:00,1569E-3,5C000000,-0724,0822,12332,027.0,045.4,0.476,729.5,01.19,0.508
2015-07-03 02:30:00,1679E-3,5C000000,-0724,0823,12244,027.0,045.4,0.475,729.6,01.19,0.508
2015-07-03 02:31:00,1624E-3,5C000000,-0724,0823,12372,026.9,045.4,0.476,729.6,01.19,0.508
2015-07-03 02:32:00,1683E-3,5C000000,-0724,0822,12205,026.9,045.5,0.476,729.7,01.19,0.508
2015-07-03 02:33:00,1693E-3,5C000000,-0724,0823,12443,026.9,045.4,0.476,729.6,01.19,0.508
2015-07-03 02:34:00,1541E-3,5C000000,-0724,0823,12314,026.9,045.5,0.476,729.7,01.19,0.508
2015-07-03 02:35:00,1616E-3,5C000000,-0724,0822,12192,026.9,045.4,0.476,729.7,01.19,0.508
2015-07-03 02:36:00,1668E-3,5C000000,-0724,0822,12387,026.9,045.4,0.476,729.5,01.19,0.508
2015-07-03 02:37:00,1638E-3,5C000000,-0724,0823,12202,026.9,045.4,0.476,729.6,01.19,0.508
2015-07-03 02:38:00,1655E-3,5C000000,-0724,0822,12220,026.9,045.4,0.476,729.6,01.19,0.508
2015-07-03 02:39:00,1753E-3,5C000000,-0724,0823,12358,026.9,045.4,0.476,729.8,01.19,0.508
2015-07-03 02:40:00,1632E-3,5C000000,-0724,0822,12388,026.9,045.4,0.476,729.6,01.19,0.508
2015-07-03 02:41:00,1561E-3,5C000000,-0724,0823,12211,026.9,045.4,0.476,729.7,01.19,0.508
2015-07-03 02:42:00,1663E-3,5C000000,-0724,0823,12249,026.9,045.4,0.476,729.7,01.19,0.508
2015-07-03 02:43:00,1776E-3,5C000000,-0724,0823,12154,027.0,045.4,0.476,729.6,01.19,0.508
2015-07-03 02:44:00,1687E-3,5C000000,-0724,0822,12192,027.0,045.4,0.476,729.7,01.19,0.508
2015-07-03 02:45:00,1592E-3,5C000000,-0724,0823,12382,027.0,045.4,0.476,729.6,01.19,0.508
2015-07-03 02:46:00,1735E-3,5C000000,-0724,0823,12290,027.0,045.4,0.475,729.6,01.19,0.508
2015-07-03 02:47:00,1650E-3,5C000000,-0724,0821,12336,027.1,045.4,0.476,729.7,01.19,0.508
2015-07-03 02:48:00,1570E-3,5C000000,-0724,0823,12227,027.1,045.4,0.476,729.6,01.19,0.508
2015-07-03 02:49:00,1702E-3,5C000000,-0724,0823,12376,027.1,045.4,0.476,729.7,01.19,0.508
2015-07-03 02:50:00,1696E-3,5C000000,-0724,0822,12304,027.1,045.4,0.476,729.7,01.19,0.508
2015-07-03 02:51:00,1606E-3,5C000000,-0724,0822,12487,027.1,045.4,0.475,729.5,01.19,0.508
2015-07-03 02:52:00,1612E-3,5C000000,-0724,0821,12199,027.2,045.4,0.476,729.7,01.19,0.508
2015-07-03 02:53:00,1740E-3,5C000000,-0724,0823,12169,027.2,045.4,0.476,729.6,01.19,0.508
2015-07-03 02:54:00,1581E-3,5C000000,-0724,0823,12262,027.2,045.4,0.476,729.4,01.19,0.508
2015-07-03 02:55:00,1655E-3,5C000000,-0724,0823,12266,027.3,045.4,0.475,729.5,01.19,0.508
2015-07-03 02:56:00,1627E-3,5C000000,-0724,0823,12352,027.3,045.4,0.475,729.5,01.19,0.508
2015-07-03 02:57:00,1606E-3,5C000000,-0724,0822,12116,027.3,045.4,0.475,729.5,01.19,0.508
2015-07-03 02:58:00,1618E-3,5C000000,-0724,0822,12362,027.4,045.4,0.476,729.6,01.19,0.508
2015-07-03 02:59:00,1611E-3,5C000000,-0724,0822,12277,027.4,045.4,0.475,729.5,01.19,0.508
2015-07-03 03:00:00,1615E-3,5C000000,-0724,0822,12315,027.4,045.4,0.475,729.7,01.19,0.508
2015-07-03 03:01:00,1635E-3,5C000000,-0724,0823,12271,027.4,045.4,0.475,729.5,01.19,0.508
2015-07-03 03:02:00,1619E-3,5C000000,-0724,0821,12281,027.4,045.4,0.475,729.7,01.19,0.508
2015-07-03 03:03:00,1704E-3,5C000000,-0724,0823,12414,027.4,045.4,0.476,729.7,01.19,0.508
2015-07-03 03:04:00,1495E-3,5C000000,-0724,0822,12297,027.5,045.4,0.475,729.6,01.19,0.508
2015-07-03 03:05:00,1592E-3,5C000000,-0724,0822,12286,027.5,045.4,0.475,729.7,01.19,0.508
2015-07-03 03:06:00,1741E-3,5C000000,-0724,0822,12288,027.5,045.4,0.475,729.5,01.19,0.508
2015-07-03 03:07:00,1619E-3,5C000000,-0724,0822,12194,027.6,045.4,0.475,729.6,01.19,0.508
2015-07-03 03:08:00,1643E-3,5C000000,-0724,0822,12324,027.6,045.4,0.475,729.8,01.19,0.508
2015-07-03 03:09:00,1643E-3,5C000000,-0724,0823,12269,027.6,045.4,0.475,729.7,01.19,0.508
2015-07-03 03:10:00,1591E-3,5C000000,-0724,0823,12247,027.6,045.5,0.475,729.7,01.19,0.508
2015-07-03 03:11:00,1691E-3,5C000000,-0724,0823,12117,027.6,045.4,0.475,729.8,01.19,0.508
2015-07-03 03:12:00,1620E-3,5C000000,-0724,0822,12243,027.7,045.4,0.475,729.8,01.19,0.508
2015-07-03 03:13:00,1672E-3,5C000000,-0724,0822,12199,027.7,045.5,0.475,729.9,01.19,0.508
2015-07-03 03:14:00,1654E-3,5C000000,-0724,0822,12336,027.7,045.5,0.475,729.8,01.19,0.508
2015-07-03 03:15:00,1673E-3,5C000000,-0724,0823,12359,027.7,045.5,0.475,729.8,01.19,0.508
2015-07-03 03:16:00,1672E-3,5C000000,-0724,0823,12318,027.8,045.5,0.475,729.8,01.19,0.508
2015-07-03 03:17:00,1540E-3,5C000000,-0724,0822,12346,027.8,045.4,0.475,730.0,01.19,0.508
2015-07-03 03:18:00,1741E-3,5C000000,-0724,0822,12310,027.8,045.5,0.475,730.0,01.19,0.508
2015-07-03 03:19:00,1619E-3,5C000000,-0724,0823,12193,027.8,045.5,0.474,729.9,01.19,0.508
2015-07-03 03:20:00,1554E-3,5C000000,-0724,0823,12117,027.8,045.4,0.474,730.0,01.19,0.508
2015-07-03 03:21:00,1866E-3,5C000000,-0724,0823,12285,027.8,045.4,0.474,729.9,01.19,0.508
2015-07-03 03:22:00,1695E-3,5C000000,-0724,0823,12232,027.8,045.4,0.475,730.0,01.19,0.508
2015-07-03 03:23:00,1732E-3,5C000000,-0724,0822,12322,027.9,045.5,0.475,729.5,01.19,0.508
2015-07-03 03:24:00,1650E-3,5C000000,-0724,0823,12113,027.9,045.5,0.475,729.8,01.19,0.508
2015-07-03 03:25:00,1727E-3,5C000000,-0724,0823,12314,027.9,045.4,0.475,729.9,01.19,0.508
2015-07-03 03:26:00,1597E-3,5C000000,-0724,0823,12171,027.9,045.4,0.475,730.0,01.19,0.508
2015-07-03 03:27:00,1563E-3,5C000000,-0724,0822,12179,027.9,045.4,0.475,730.0,01.19,0.508
2015-07-03 03:28:00,1653E-3,5C000000,-0724,0822,12290,027.9,045.4,0.475,729.9,01.19,0.508
2015-07-03 03:29:00,1735E-3,5C000000,-0724,0823,12287,028.0,045.4,0.475,729.9,01.19,0.508
2015-07-03 03:30:00,1526E-3,5C000000,-0724,0823,12345,028.0,045.4,0.475,729.9,01.19,0.508
2015-07-03 03:31:00,1651E-3,5C000000,-0724,0822,12346,028.0,045.5,0.474,729.9,01.19,0.508
2015-07-03 03:32:00,1652E-3,5C000000,-0724,0822,12307,028.0,045.5,0.474,729.8,01.19,0.508
2015-07-03 03:33:00,1697E-3,5C000000,-0724,0822,12170,028.0,045.5,0.474,729.8,01.19,0.508
2015-07-03 03:34:00,1586E-3,5C000000,-0724,0822,12325,028.0,045.5,0.474,729.8,01.19,0.508
2015-07-03 03:35:00,1685E-3,5C000000,-0724,0823,12264,028.0,045.5,0.474,729.8,01.19,0.508
2015-07-03 03:36:00,1761E-3,5C000000,-0724,0822,12244,028.0,045.5,0.474,729.8,01.19,0.508
2015-07-03 03:37:00,1721E-3,5C000000,-0724,0823,12228,028.1,045.5,0.474,729.8,01.19,0.508
2015-07-03 03:38:00,1748E-3,5C000000,-0724,0822,12375,028.1,045.5,0.474,729.9,01.19,0.508
2015-07-03 03:39:00,1699E-3,5C000000,-0724,0822,12334,028.1,045.5,0.474,729.9,01.19,0.508
2015-07-03 03:40:00,1661E-3,5C000000,-0724,0823,12314,028.1,045.4,0.474,729.9,01.19,0.508
2015-07-03 03:41:00,1578E-3,5C000000,-0724,0823,12303,028.1,045.4,0.474,729.7,01.19,0.508
2015-07-03 03:42:00,1588E-3,5C000000,-0724,0822,12226,028.1,045.5,0.474,729.9,01.19,0.508
2015-07-03 03:43:00,1703E-3,5C000000,-0724,0823,12294,028.1,045.5,0.474,729.9,01.19,0.508
2015-07-03 03:44:00,1711E-3,5C000000,-0724,0822,12220,028.1,045.5,0.474,730.0,01.19,0.508
2015-07-03 03:45:00,1701E-3,5C000000,-0724,0822,12262,028.1,045.5,0.475,729.9,01.19,0.508
2015-07-03 03:46:00,1599E-3,5C000000,-0724,0823,12243,028.1,045.5,0.475,730.0,01.19,0.508
2015-07-03 03:47:00,1726E-3,5C000000,-0724,0822,12281,028.2,045.5,0.474,730.1,01.19,0.508
2015-07-03 03:48:00,1576E-3,5C000000,-0724,0822,12168,028.2,045.5,0.475,730.1,01.19,0.508
2015-07-03 03:49:00,1653E-3,5C000000,-0724,0822,12330,028.2,045.4,0.475,730.1,01.19,0.508
2015-07-03 03:50:00,1606E-3,5C000000,-0724,0821,12334,028.2,045.5,0.475,730.1,01.19,0.508
2015-07-03 03:51:00,1647E-3,5C000000,-0724,0822,12172,028.2,045.5,0.474,730.1,01.19,0.508
2015-07-03 03:52:00,1614E-3,5C000000,-0724,0823,12105,028.2,045.5,0.475,730.0,01.19,0.508
2015-07-03 03:53:00,1723E-3,5C000000,-0724,0823,12279,028.2,045.5,0.474,730.0,01.19,0.508
2015-07-03 03:54:00,1714E-3,5C000000,-0724,0822,12119,028.2,045.5,0.474,729.8,01.19,0.508
2015-07-03 03:55:00,1723E-3,5C000000,-0724,0823,12332,028.2,045.4,0.474,729.9,01.19,0.508
2015-07-03 03:56:00,1564E-3,5C000000,-0724,0823,12220,028.2,045.5,0.474,730.0,01.19,0.508
2015-07-03 03:57:00,1559E-3,5C000000,-0724,0823,12256,028.2,045.5,0.474,730.0,01.19,0.508
2015-07-03 03:58:00,1633E-3,5C000000,-0724,0822,12231,028.3,045.4,0.474,730.0,01.19,0.508
2015-07-03 03:59:00,1725E-3,5C000000,-0724,0824,12327,028.2,045.4,0.474,730.1,01.19,0.508
2015-07-03 04:00:00,1634E-3,5C000000,-0724,0824,12278,028.3,045.5,0.474,730.1,01.19,0.508
2015-07-03 04:01:00,1597E-3,5C000000,-0724,0823,12227,028.3,045.5,0.474,730.2,01.19,0.508
2015-07-03 04:02:00,1676E-3,5C000000,-0724,0823,12232,028.3,045.5,0.474,730.0,01.19,0.508
2015-07-03 04:03:00,1635E-3,5C000000,-0724,0823,12304,028.3,045.5,0.474,730.0,01.19,0.508
2015-07-03 04:04:00,1573E-3,5C000000,-0724,0823,12220,028.3,045.4,0.474,730.1,01.19,0.508
2015-07-03 04:05:00,1624E-3,5C000000,-0724,0823,12089,028.3,045.5,0.474,730.0,01.19,0.508
2015-07-03 04:06:00,1566E-3,5C000000,-0724,0822,12138,028.3,045.5,0.474,730.1,01.19,0.508
2015-07-03 04:07:00,1711E-3,5C000000,-0724,0823,12198,028.3,045.5,0.474,730.1,01.19,0.508
2015-07-03 04:08:00,1676E-3,5C000000,-0724,0823,12222,028.3,045.5,0.474,730.1,01.19,0.508
2015-07-03 04:09:00,1611E-3,5C000000,-0724,0823,12197,028.3,045.5,0.474,730.1,01.19,0.508
2015-07-03 04:10:00,1786E-3,5C000000,-0724,0824,12256,028.3,045.5,0.474,730.1,01.19,0.508
2015-07-03 04:11:00,1617E-3,5C000000,-0724,0823,12273,028.4,045.5,0.474,730.0,01.19,0.508
2015-07-03 04:12:00,1629E-3,5C000000,-0724,0823,12336,028.4,045.5,0.474,730.0,01.19,0.508
2015-07-03 04:13:00,1760E-3,5C000000,-0724,0823,12132,028.4,045.5,0.474,730.1,01.19,0.508
2015-07-03 04:14:00,1553E-3,5C000000,-0724,0823,12223,028.4,045.5,0.474,730.1,01.19,0.508
2015-07-03 04:15:00,1699E-3,5C000000,-0724,0823,12111,028.4,045.5,0.474,730.0,01.19,0.508
2015-07-03 04:16:00,1644E-3,5C000000,-0724,0823,12236,028.4,045.5,0.474,730.0,01.19,0.508
2015-07-03 04:17:00,1752E-3,5C000000,-0724,0823,12426,028.4,045.5,0.474,730.0,01.19,0.508
2015-07-03 04:18:00,1764E-3,5C000000,-0724,0823,12244,028.4,045.5,0.474,730.0,01.19,0.508
2015-07-03 04:19:00,1618E-3,5C000000,-0724,0823,12223,028.4,045.5,0.474,729.9,01.19,0.508
2015-07-03 04:20:00,1742E-3,5C000000,-0724,0823,12243,028.4,045.4,0.474,730.1,01.19,0.508